Location: The Saddle
(36.8333°N, 80.3417°W)
Time: 12:49:15
(UTC-04:00)

ARIANE 6 FM1 Upper Stage - Pass Details

Date: 29 May 2026
Orbit: 528 x 599 km, 62.0° (Epoch: 11 June)

Event Time Altitude Azimuth Distance (km) Brightness Sun altitude
Exits shadow 05:24:54 - 190° (S) 2,776 5.8 -7.7°
Rises 05:24:55 0° 190° (S) 2,773 5.8 -7.7°
Reaches altitude 10° 05:27:20 10° 179° (S) 1,867 5.0 -7.3°
Maximum altitude 05:31:03 31° 117° (ESE) 1,003 4.3 -6.7°
Drops below altitude 10° 05:34:43 10° 55° (NE) 1,838 7.2 -6.0°
Sets 05:37:05 0° 45° (NE) 2,724 8.2 -5.6°
